Location: Domont
(49.0278°N, 2.3264°E)
Time: 01:47:30
(UTC+00:00)

ZACube-1 - Pass Details

Date: 03 July 2022
Orbit: 582 x 661 km, 97.6° (Epoch: 08 August)

Event Time Altitude Azimuth Distance (km) Brightness Sun altitude
Rises 02:46:19 0° 25° (NNE) 2,957 ? -8.5°
Reaches altitude 10° 02:49:00 10° 42° (NE) 2,055 ? -8.2°
Maximum altitude 02:52:24 21° 91° (E) 1,468 ? -7.9°
Drops below altitude 10° 02:55:49 10° 141° (SE) 2,067 ? -7.5°
Sets 02:58:32 0° 157° (SSE) 2,979 ? -7.2°
